Theta_e
304 303 302 301 301 299 298 297 298 298 296 295 294 294 294 294 293 288 283 284 282 283 285 282 284 285 285 284 284 284 283 285 286 285 285 285 284 286 289 292 293 293 293 294 294 294 294 294 294 294 295 295 295 296 296 296 296 297 298 299 300 300 300 300 301 300 300 300 300 300 300 301 301 300
303 302 301 300 299 298 296 296 297 295 296 293 293 293 294 295 294 293 291 290 285 284 284 284 282 284 284 285 284 284 283 286 286 284 284 284 284 287 289 290 291 292 292 293 293 293 293 293 293 293 293 294 295 296 296 296 296 297 298 299 299 299 300 300 300 299 299 299 299 299 299 299 299 300
302 301 299 298 298 296 295 295 294 293 292 292 292 292 292 291 294 294 290 290 286 285 282 284 283 283 284 285 284 284 283 285 285 283 283 283 286 287 287 288 289 290 291 292 292 292 293 292 293 293 293 294 295 295 295 295 295 296 297 297 298 298 298 298 297 298 298 298 299 298 299 299 298 298
300 298 298 297 296 296 294 293 293 292 292 291 291 290 290 291 291 291 290 290 285 283 282 283 282 283 283 284 283 283 283 285 286 283 283 283 286 285 284 286 287 288 289 291 291 292 292 292 293 293 293 293 293 293 293 294 294 294 294 295 296 296 296 295 296 296 296 296 297 297 297 296 297 297
295 296 297 297 296 294 293 293 292 291 291 290 290 290 289 289 288 290 289 288 282 280 281 282 282 282 283 282 283 282 282 282 284 284 283 283 283 283 283 282 284 286 288 289 290 290 291 292 292 291 291 291 291 291 292 292 292 292 292 293 294 294 294 295 295 295 294 295 295 295 295 295 295 295
294 294 295 296 294 292 293 292 291 291 290 290 289 288 288 289 287 288 288 286 283 280 280 280 281 281 283 281 282 282 281 281 282 282 282 282 283 282 282 282 282 285 287 288 289 290 291 290 290 290 290 290 290 290 291 291 291 291 292 292 291 291 292 292 292 292 292 293 294 294 294 294 294 295
294 293 293 294 293 290 290 290 290 289 289 289 289 288 288 288 287 286 287 285 282 281 280 280 280 280 281 280 281 282 282 282 282 281 281 281 282 282 282 282 282 284 287 288 289 289 289 289 288 288 288 289 289 289 290 290 290 290 290 290 290 289 289 290 290 291 291 292 293 293 293 293 294 293
293 293 292 293 291 289 290 289 288 287 288 288 288 287 287 287 286 286 285 286 283 282 280 279 280 280 280 280 281 281 281 281 281 281 281 281 281 281 282 281 281 283 285 287 287 287 287 287 287 287 288 288 288 289 288 288 288 288 288 287 287 287 288 288 289 289 289 290 291 292 292 293 293 292
293 292 292 292 290 288 289 287 287 286 286 287 287 287 286 286 285 284 285 284 284 282 282 279 279 280 280 279 280 281 281 280 280 280 280 280 280 280 280 280 281 283 285 285 285 285 285 285 286 287 287 287 287 287 287 287 287 286 286 285 286 287 287 288 288 288 288 288 289 290 291 292 291 291
292 292 292 291 289 288 289 287 286 286 286 286 286 285 285 285 284 283 283 283 283 283 281 280 279 280 280 280 280 280 281 281 280 279 279 278 278 278 278 278 279 279 279 279 280 282 283 284 285 285 286 286 286 286 286 286 285 285 284 284 285 286 287 287 287 287 287 287 288 288 289 290 290 290
291 291 291 290 289 289 289 288 286 285 285 284 284 284 284 283 282 282 281 282 281 281 280 280 280 280 281 282 281 280 280 280 280 278 277 278 278 277 277 277 279 280 280 281 283 282 283 284 283 284 284 285 285 285 284 284 284 283 283 284 285 286 286 287 287 287 287 287 287 287 287 287 288 289
290 290 290 289 289 289 289 288 286 285 284 284 283 283 283 282 282 282 282 282 282 281 281 280 280 281 280 280 280 279 279 278 278 278 277 277 277 277 277 277 278 279 279 278 277 281 282 282 282 283 283 283 283 283 283 283 282 282 283 285 285 286 286 286 286 286 286 286 286 286 286 286 286 288
289 289 288 288 288 288 287 287 286 286 285 284 283 282 283 282 283 282 282 282 282 282 282 281 281 280 280 280 280 278 277 278 279 278 277 276 277 277 277 278 279 278 277 276 277 278 279 278 278 278 277 278 281 281 282 281 281 282 284 284 285 285 285 285 285 285 285 285 285 285 285 285 285 285
287 288 287 287 286 286 286 286 286 286 286 286 285 283 283 283 283 283 283 283 283 283 282 280 280 280 280 280 280 279 279 280 279 277 277 276 277 277 277 278 278 277 276 277 277 277 279 278 277 277 277 278 279 278 278 278 280 282 283 284 284 284 284 284 284 284 284 284 284 284 284 284 284 284
287 286 286 286 286 285 285 285 286 287 286 286 286 286 286 286 285 284 284 284 284 283 283 282 282 282 281 280 280 280 280 279 279 278 278 277 277 276 274 273 277 278 277 276 273 274 277 277 275 276 276 277 277 277 277 281 281 281 282 282 283 283 282 282 282 283 283 283 283 283 283 283 283 283
287 286 285 285 285 285 285 284 285 285 286 286 286 286 287 287 288 288 286 284 284 285 283 281 281 282 282 281 280 280 279 279 278 278 277 277 276 276 275 275 274 277 278 275 274 275 276 276 276 275 276 277 276 276 278 279 280 281 281 281 281 281 281 281 281 281 281 281 281 282 282 282 282 282
286 285 284 283 284 284 284 284 285 284 285 286 286 287 287 287 288 289 289 288 286 285 284 283 281 282 282 281 280 280 280 280 278 278 277 277 277 277 276 276 276 277 278 276 275 274 275 275 274 274 275 274 274 273 275 278 279 280 280 280 280 280 280 280 280 280 280 280 280 280 280 280 280 280
285 284 283 283 282 283 283 284 284 284 284 285 285 285 285 285 286 287 287 287 286 286 285 284 282 282 282 282 281 281 282 279 278 278 277 278 277 277 277 276 276 278 278 275 275 271 272 273 272 271 271 272 271 271 274 277 278 278 279 278 278 278 278 279 279 279 279 279 279 279 279 279 279 279
284 284 283 283 282 282 283 283 284 284 284 284 284 284 284 284 284 284 284 284 284 284 284 284 283 282 282 281 281 281 282 281 280 279 278 279 279 277 275 274 276 276 275 274 273 266 271 271 269 269 269 270 269 269 272 275 276 276 277 277 277 277 277 278 278 277 277 278 278 278 278 278 278 278
284 283 283 282 282 282 282 284 285 285 284 284 283 283 283 283 283 283 284 285 285 283 283 282 282 281 282 283 281 281 281 281 281 281 279 277 273 271 272 272 274 271 273 273 272 269 269 270 266 266 267 268 266 268 267 272 274 275 275 275 276 276 276 276 276 276 276 276 277 277 277 277 277 277
282 283 283 282 282 282 282 285 286 286 285 284 283 283 282 282 282 282 284 286 286 286 286 286 286 286 286 285 285 285 285 283 281 278 276 273 272 271 270 270 269 266 270 272 272 270 267 265 263 263 263 266 265 266 267 267 271 273 273 273 273 275 275 275 275 275 275 276 276 276 277 277 277 275
282 282 283 283 282 282 283 286 287 287 285 284 283 282 281 281 280 281 283 283 284 286 286 285 285 285 286 286 286 285 285 284 281 277 273 272 269 267 269 268 270 270 270 270 272 266 265 263 262 262 262 262 262 265 266 267 267 270 270 271 272 272 274 274 274 274 274 275 275 275 276 276 275 271
281 282 283 283 283 283 284 287 287 287 286 284 283 282 282 280 280 280 281 281 281 282 282 282 282 281 280 279 279 280 281 280 278 275 273 270 269 268 268 268 266 263 268 270 271 262 259 261 261 261 259 256 260 261 263 264 265 265 266 266 266 270 271 271 271 272 273 274 274 274 275 275 274 270
281 282 282 283 285 285 286 287 288 288 287 285 284 283 282 281 279 281 281 281 281 281 280 279 278 276 276 276 275 274 275 275 275 274 271 269 267 265 264 264 262 259 261 267 268 261 256 258 257 260 259 257 256 259 262 262 264 264 265 265 264 267 268 268 268 270 271 272 273 273 274 274 274 269
280 281 282 282 285 286 287 288 288 288 288 286 284 283 283 282 282 281 280 281 281 279 278 276 275 275 274 273 273 272 271 271 271 272 272 268 267 265 262 261 261 259 261 267 270 259 256 254 255 256 256 256 258 258 261 262 262 263 264 264 263 264 264 264 265 264 268 269 270 272 273 274 274 271
281 281 282 282 285 286 287 288 288 288 287 286 283 284 285 285 284 280 280 280 279 278 276 275 274 273 272 271 270 269 268 268 268 266 267 269 265 263 263 264 262 260 259 264 271 257 252 254 256 254 254 254 255 258 258 259 261 261 263 264 264 263 264 263 263 263 264 264 264 267 269 272 272 272
281 282 282 283 285 286 287 288 288 288 287 286 284 286 286 285 284 282 280 279 277 275 274 274 272 270 269 268 267 267 266 264 264 264 263 262 263 263 264 265 264 263 262 261 262 260 254 251 258 256 253 255 255 256 257 256 257 261 261 262 262 263 263 263 262 262 263 263 263 269 268 269 270 271
282 282 283 284 286 287 287 288 288 287 286 284 286 286 286 285 282 279 278 277 275 274 273 272 270 268 266 267 266 265 265 263 263 262 260 260 259 260 260 262 262 262 260 260 260 260 258 254 255 257 256 253 253 252 254 259 259 259 259 261 261 261 262 263 262 262 262 262 262 262 262 262 263 263
282 283 284 285 286 287 287 287 287 286 285 286 286 286 285 282 278 277 276 275 274 273 272 271 270 268 267 267 265 265 263 262 262 260 258 257 257 256 258 258 258 258 259 258 258 258 258 257 255 256 253 254 252 254 255 255 257 257 259 258 257 259 261 262 262 261 261 261 261 261 261 261 262 263
284 285 285 286 286 286 286 286 285 283 284 285 285 285 282 277 277 276 275 274 273 272 271 269 269 267 265 264 262 261 261 261 258 257 255 255 256 255 256 257 256 253 254 256 258 258 258 257 257 255 253 253 254 253 254 254 254 256 258 257 258 259 260 260 260 260 260 260 260 260 261 262 262 262
284 285 285 285 286 286 286 285 284 284 284 284 283 279 277 276 275 275 274 274 273 271 269 268 266 265 263 261 261 259 259 256 256 257 256 253 255 254 252 254 253 253 254 252 255 259 258 257 257 257 253 253 253 256 254 253 254 255 255 257 257 254 257 259 259 259 260 260 260 261 261 261 262 263
283 284 285 285 285 285 284 283 282 282 280 277 276 275 274 273 273 274 274 272 270 268 267 265 263 261 260 259 256 257 255 254 255 256 255 253 254 254 252 253 254 251 249 252 252 254 257 256 256 256 256 254 253 253 252 252 253 254 254 256 256 257 257 257 257 258 259 259 259 258 260 260 261 261
283 284 284 283 282 281 279 278 277 275 275 273 273 272 272 271 271 271 270 269 267 265 265 264 263 261 259 257 255 256 255 255 254 253 253 254 254 251 249 251 251 251 252 251 252 253 252 254 254 256 256 255 256 256 252 252 251 249 250 253 254 255 256 257 258 258 259 258 257 257 258 260 261 262
282 282 281 280 279 278 277 276 275 274 273 272 271 270 272 270 269 268 267 266 264 264 265 264 262 260 259 256 255 255 256 253 253 255 259 251 252 251 250 251 251 250 252 250 250 251 251 250 252 254 252 253 254 256 255 253 253 252 253 253 254 253 256 256 257 258 258 257 257 256 257 258 260 262
281 279 278 277 277 277 277 275 275 273 272 271 271 270 269 268 268 266 265 263 263 263 262 261 260 259 259 258 256 256 255 255 252 251 252 251 250 251 251 250 250 250 251 250 250 249 250 250 249 249 249 251 253 252 258 256 249 252 251 253 253 253 254 256 256 257 257 257 258 257 257 258 259 261
279 279 277 276 276 276 275 275 274 273 272 271 270 268 267 266 264 265 263 262 263 262 261 260 258 258 257 257 255 254 254 255 252 252 250 250 250 249 248 250 251 251 250 249 249 249 250 249 249 248 249 248 246 248 252 262 259 252 252 250 251 254 254 255 256 256 257 256 258 257 256 256 257 260
278 277 276 275 275 275 274 274 273 273 272 270 269 269 268 266 264 263 263 264 262 261 261 260 259 257 255 254 254 255 255 254 250 251 251 249 250 250 250 251 252 250 250 249 249 248 249 249 249 247 246 247 248 247 251 249 257 263 254 251 253 254 254 254 254 255 257 258 257 258 258 258 258 260
277 276 275 275 275 275 274 273 272 271 270 269 268 267 266 264 262 261 261 261 260 259 261 259 256 255 254 254 255 253 252 251 251 252 251 249 249 248 249 249 248 249 248 248 249 249 248 247 248 247 247 247 246 249 248 250 251 254 262 256 254 255 256 256 256 256 257 258 257 259 260 259 259 260
276 275 275 274 274 273 272 272 271 270 269 268 267 266 264 262 261 259 260 260 259 258 256 255 255 255 255 254 254 255 253 251 251 251 250 249 250 249 248 248 248 247 247 248 247 247 247 246 247 247 247 246 247 247 249 249 250 252 256 262 258 255 256 257 257 258 257 257 258 259 260 262 263 266
276 275 275 274 273 273 272 271 270 269 268 267 266 265 263 261 260 260 259 258 257 256 257 255 255 255 252 253 253 250 251 253 253 251 251 250 250 250 249 249 249 248 247 247 247 248 246 247 248 248 248 251 251 252 251 252 252 252 252 255 262 260 259 259 258 257 257 258 259 258 258 259 258 261
274 274 273 273 273 271 270 269 269 267 266 265 264 264 262 261 261 260 259 258 257 256 254 253 255 254 254 253 252 253 253 250 249 249 250 250 251 252 252 254 250 248 248 250 248 247 248 249 252 258 255 249 248 246 248 247 250 251 252 252 258 261 263 263 259 258 258 259 259 258 257 258 258 260
273 272 270 270 271 269 269 267 266 265 264 263 263 262 260 260 260 261 260 259 256 255 255 254 254 254 253 252 252 252 252 252 250 249 250 250 250 252 253 252 250 247 247 249 249 250 250 250 251 250 246 247 248 248 246 247 249 251 251 251 252 257 260 262 263 263 261 260 259 258 258 259 260 259
272 271 268 267 268 267 267 265 265 265 263 262 261 260 259 258 258 259 256 256 255 255 255 253 252 253 252 250 250 252 251 250 251 251 251 250 251 251 251 251 251 249 249 250 249 247 248 248 248 247 245 246 246 247 247 249 248 249 249 250 252 252 253 258 260 262 264 264 264 263 262 260 258 256
270 268 266 265 265 265 265 264 263 262 261 260 259 258 259 258 257 258 257 257 256 256 254 254 252 252 252 250 249 250 251 251 250 250 251 251 251 251 250 249 250 249 248 248 247 248 246 246 245 246 246 245 245 246 248 247 248 249 249 250 250 250 251 252 253 257 259 260 263 264 266 266 266 266
267 266 263 263 263 262 261 260 260 259 259 258 258 258 258 258 258 257 255 256 255 254 253 253 252 251 250 250 250 252 252 254 252 250 251 251 251 251 251 249 249 249 248 247 246 247 246 245 243 245 245 245 245 246 248 249 249 249 249 249 249 250 250 251 251 251 251 252 258 264 265 266 266 266
Wind_Speed
14 12 14 13 11 10 8 8 10 10 8 8 8 9 12 11 12 5 7 9 9 4 10 7 6 9 8 8 6 7 6 6 7 5 5 4 2 3 6 9 11 11 13 14 14 14 14 15 15 15 16 17 17 18 19 19 20 21 22 23 24 25 27 27 28 28 29 30 30 32 31 30 30 31
11 12 10 9 10 7 7 10 11 9 11 9 9 10 10 9 12 11 10 8 7 5 5 6 4 6 8 6 6 6 6 8 8 4 4 4 3 4 6 8 10 11 12 13 13 14 15 15 15 15 16 17 17 18 19 20 21 22 23 24 25 25 26 26 27 29 29 29 30 31 31 32 32 32
10 11 12 10 10 8 9 9 8 8 8 9 9 9 8 8 11 10 6 8 2 4 6 5 3 5 7 7 6 4 4 6 7 5 4 3 4 3 3 6 8 10 11 12 13 14 15 15 15 15 16 16 17 18 19 20 21 22 22 23 23 23 24 25 26 27 28 30 31 32 31 31 33 33
8 9 10 9 9 8 7 8 8 8 8 7 8 8 8 8 7 5 6 10 4 1 1 3 3 3 5 5 6 6 4 4 7 3 4 3 3 2 2 4 7 8 10 13 13 14 14 14 15 15 16 17 17 18 19 20 20 20 21 22 22 23 23 24 25 26 27 28 30 31 32 32 34 33
7 9 10 10 10 7 9 8 7 6 7 6 6 6 7 8 7 9 8 8 3 1 0 1 4 4 6 4 4 6 6 5 4 4 4 3 2 2 2 2 4 8 11 12 12 13 13 14 14 14 15 16 17 17 18 19 19 19 20 21 22 23 23 24 25 26 27 28 28 29 32 33 32 32
7 7 9 10 9 7 10 8 8 8 8 8 8 8 8 8 8 7 8 6 7 6 2 2 3 4 3 5 3 7 7 6 5 5 4 2 2 3 2 1 3 8 9 10 12 12 12 13 13 13 14 15 15 16 18 18 18 19 20 20 21 22 23 24 24 25 26 27 28 29 29 31 31 31
7 8 9 9 8 6 7 7 7 6 7 6 8 8 7 8 7 7 7 7 6 8 3 3 5 4 2 4 5 6 5 6 5 5 4 4 3 3 2 3 3 6 9 11 11 10 11 11 12 12 13 15 16 17 17 17 18 18 19 20 21 21 23 23 24 25 25 27 27 28 30 32 33 32
8 10 9 9 8 7 9 8 7 6 6 8 8 8 7 7 8 8 7 7 6 5 7 3 5 3 5 5 6 6 6 6 5 4 4 3 1 2 3 3 3 5 9 9 9 10 10 10 11 13 14 15 15 16 16 17 17 18 19 20 20 22 22 22 23 24 26 27 28 29 30 31 33 34
9 9 10 9 8 8 9 6 7 7 9 8 8 8 8 8 8 7 7 7 6 7 8 5 2 3 4 3 5 5 7 5 5 3 2 2 2 2 2 2 3 6 8 6 7 8 9 10 12 14 14 15 15 15 15 16 16 17 19 20 21 22 22 23 24 25 26 27 28 29 30 31 32 32
8 9 10 8 9 9 11 10 8 8 10 8 9 8 8 7 8 9 7 7 8 9 8 9 6 2 6 4 3 3 5 5 3 2 1 0 2 2 2 3 3 2 2 2 2 3 5 8 12 13 13 13 14 14 14 15 17 19 20 21 21 21 22 23 24 25 26 27 28 29 29 30 31 31
7 8 8 8 9 11 11 10 11 10 9 9 10 10 9 9 10 9 8 8 8 8 8 4 5 7 2 4 5 2 4 4 3 4 2 0 1 2 3 2 1 1 1 2 2 3 6 9 7 10 11 13 13 14 14 15 17 18 20 21 21 22 23 23 24 26 27 28 28 29 29 30 31 31
7 8 8 8 9 10 10 10 10 11 11 9 9 8 9 9 10 9 8 8 8 8 8 8 7 3 5 4 4 4 4 3 1 2 2 4 3 3 2 2 2 2 1 2 3 3 4 4 7 9 10 11 13 13 12 13 16 19 20 21 22 22 23 24 25 26 27 27 28 29 30 30 30 31
7 7 7 7 8 9 10 12 11 12 12 11 10 9 9 10 10 9 8 8 8 7 8 5 4 6 5 5 6 6 4 5 5 4 4 3 2 2 1 2 1 2 1 1 0 3 2 3 4 5 5 5 7 7 10 9 14 17 21 21 22 23 24 25 25 25 26 27 28 30 30 31 31 30
6 6 6 6 10 11 11 12 13 14 15 14 13 13 11 11 11 11 10 9 9 9 8 8 9 7 7 7 7 6 3 4 5 6 5 4 2 2 2 2 2 1 3 3 2 5 3 3 5 4 5 5 4 3 4 5 12 18 21 21 22 23 23 24 25 26 27 27 27 28 30 31 31 31
7 6 6 5 7 8 8 10 15 15 15 14 13 16 17 15 15 13 11 9 9 9 8 7 8 8 7 6 5 6 6 4 5 5 5 4 3 2 1 2 3 1 5 2 2 4 3 3 5 4 5 4 2 4 5 15 19 20 20 20 20 22 23 24 25 25 25 26 27 29 30 31 31 31
6 7 6 5 5 6 8 9 10 12 14 14 14 15 13 12 13 13 14 12 10 9 9 7 7 7 7 7 7 6 6 6 5 5 4 4 4 3 4 4 3 2 4 2 2 5 4 2 4 2 2 3 4 6 13 18 18 17 17 19 21 21 22 23 23 24 25 26 27 28 29 30 30 31
7 6 6 6 5 6 10 9 9 9 9 11 14 12 10 9 9 7 7 8 10 8 9 9 7 8 7 8 6 6 7 6 7 5 4 4 4 5 5 5 2 3 1 1 2 3 3 1 1 2 2 4 5 7 10 16 15 15 18 19 20 20 21 22 23 24 24 25 26 27 29 30 30 30
7 8 8 7 7 6 8 7 8 8 8 8 8 7 7 7 8 10 11 11 11 9 7 8 9 5 6 6 6 6 7 8 7 5 5 5 5 5 5 2 2 1 5 1 1 2 1 3 3 2 2 5 5 5 10 12 13 16 17 18 18 19 21 22 22 23 24 25 26 27 27 28 29 29
7 8 8 8 8 8 8 8 9 10 9 10 9 8 8 8 7 6 7 7 6 6 5 5 5 6 5 7 7 7 6 6 5 6 5 5 4 2 1 1 1 5 4 3 2 2 1 2 3 3 4 4 4 3 7 9 14 16 16 17 18 20 21 21 22 23 24 24 25 25 26 27 28 28
7 7 8 8 8 8 9 11 15 13 11 11 11 10 9 8 7 6 6 9 9 7 6 5 7 6 7 8 7 6 6 5 4 4 4 5 3 3 0 1 0 2 2 2 2 2 2 2 4 2 3 4 5 4 1 9 13 16 16 16 18 19 19 21 22 23 23 23 24 25 26 27 27 27
7 7 8 8 8 9 9 13 19 19 18 12 13 11 10 8 8 7 8 13 14 14 13 14 13 12 12 11 11 11 11 7 6 5 5 3 4 3 2 2 0 2 1 2 2 1 4 2 2 4 2 4 3 2 3 3 9 14 14 16 17 17 19 21 22 22 22 23 23 24 25 26 26 28
5 6 10 9 9 9 8 15 19 21 18 14 14 14 13 12 10 8 7 7 8 14 14 14 14 13 12 11 10 10 10 10 8 7 6 5 5 3 3 4 2 2 0 1 2 2 3 2 3 4 3 1 0 4 1 3 7 12 10 14 15 16 18 20 21 21 22 22 22 23 25 25 25 16
5 6 8 12 9 10 13 22 21 23 17 12 12 12 12 11 11 9 9 10 10 8 8 7 8 9 12 10 8 9 15 12 8 5 6 5 5 5 4 4 1 2 0 2 1 1 4 4 5 4 6 3 3 3 1 3 3 4 5 7 7 15 18 19 19 20 20 21 23 23 24 25 23 14
5 7 7 10 16 18 20 22 22 19 19 13 12 12 11 12 11 8 9 9 9 8 8 8 8 8 7 8 8 7 7 7 6 6 4 4 6 6 6 4 3 4 3 1 3 2 2 1 2 3 1 1 5 2 0 4 4 2 5 8 6 12 15 16 15 19 20 21 23 23 24 24 24 14
7 6 6 5 13 18 19 18 20 20 19 16 11 11 11 10 11 13 9 11 12 9 9 8 8 7 6 6 6 6 5 5 5 5 4 3 4 6 6 5 4 3 2 1 2 3 1 1 1 3 2 0 3 5 6 4 1 3 4 5 6 8 8 8 8 9 14 20 20 22 22 24 25 19
5 7 8 7 13 18 19 19 21 22 19 17 10 10 12 16 21 12 9 9 8 8 8 8 7 6 6 6 6 5 5 4 5 5 4 5 4 2 4 6 5 3 3 3 3 3 3 2 2 1 1 1 4 2 7 7 2 2 5 6 6 7 7 8 9 9 10 10 10 14 18 24 23 24
7 6 7 8 15 19 19 21 22 20 21 15 10 17 19 20 21 15 9 9 9 8 8 8 7 6 6 7 6 5 5 4 4 5 5 4 4 4 4 3 2 3 2 2 2 3 3 1 1 2 1 1 3 5 4 4 6 6 7 5 6 6 6 7 8 9 10 10 10 20 19 19 20 22
7 7 7 10 19 17 19 20 21 21 18 12 19 20 21 23 19 10 10 9 9 9 8 8 7 7 5 6 6 5 5 5 5 6 4 4 3 4 4 5 5 4 4 4 4 4 5 3 0 0 1 1 1 4 8 5 3 4 8 8 6 2 5 6 7 9 9 9 10 10 10 10 10 12
6 8 13 16 19 17 19 19 19 17 16 20 20 21 23 19 10 10 9 10 9 9 9 8 7 7 6 5 4 5 5 5 5 5 4 4 4 4 6 5 4 4 3 3 4 3 4 4 2 0 1 1 1 4 2 7 5 6 7 9 9 6 7 5 8 8 9 9 9 9 9 10 11 11
12 14 15 18 17 15 15 13 10 9 11 17 19 23 20 9 9 9 9 9 10 9 8 8 9 7 6 5 6 4 5 6 6 5 3 4 3 4 5 6 5 3 3 2 2 3 3 3 1 1 1 2 3 4 4 4 6 3 5 5 8 9 1 5 7 8 9 10 10 10 9 9 10 11
9 11 12 10 10 8 12 10 10 12 14 13 12 9 7 7 7 8 8 10 9 8 8 7 7 7 6 5 6 5 6 4 2 3 4 4 1 1 1 5 1 1 2 3 3 3 3 3 2 0 1 4 3 5 4 2 5 6 6 5 4 6 8 9 7 8 8 9 10 10 9 9 9 9
8 8 9 10 8 8 8 8 7 7 7 8 8 7 6 6 5 5 7 8 6 6 6 7 7 7 7 7 5 5 4 4 2 2 4 3 2 0 2 2 1 0 1 3 4 4 4 3 3 3 2 3 4 4 1 2 5 6 7 6 4 5 5 7 9 8 8 9 10 9 9 8 8 8
8 9 10 9 9 8 9 7 8 8 9 6 6 8 7 6 6 6 7 8 8 8 9 9 9 8 7 6 4 6 5 3 2 2 4 1 5 1 2 3 2 1 0 2 3 5 4 4 3 3 4 4 5 6 4 6 5 3 4 6 5 6 4 5 6 9 9 8 8 9 10 9 6 8
9 9 8 9 10 10 10 10 10 9 9 8 7 6 7 6 6 6 6 7 7 7 8 8 8 7 7 6 6 6 6 2 1 1 4 2 2 3 2 3 1 0 1 1 3 4 4 4 6 6 4 4 5 9 8 6 6 4 5 4 4 6 6 5 7 7 8 7 9 10 10 10 9 8
9 8 9 9 9 9 9 10 10 10 10 9 9 8 6 5 7 6 7 7 7 7 7 7 7 7 7 7 6 7 5 6 2 1 1 3 2 4 5 4 2 1 1 1 3 2 1 4 6 6 6 8 8 5 8 10 3 6 2 5 5 5 7 5 6 7 7 7 5 8 10 10 10 8
9 8 8 8 8 9 10 10 10 10 9 9 9 8 8 7 6 8 7 6 8 8 7 7 7 7 7 6 6 6 6 7 5 4 2 3 4 3 2 2 2 2 1 3 3 3 0 2 0 1 4 4 4 5 7 8 10 6 2 4 4 5 6 5 6 7 7 6 5 6 9 11 11 10
9 8 8 8 7 8 9 8 9 8 8 9 9 9 9 9 7 5 6 6 7 7 7 8 7 7 7 6 7 6 7 7 6 4 5 3 3 4 3 1 3 1 1 4 2 2 0 0 0 1 1 2 1 3 7 5 7 5 3 1 4 6 7 7 6 7 6 6 7 6 8 9 10 11
9 8 8 8 8 7 7 8 8 8 7 7 7 7 6 6 6 6 5 7 7 7 7 7 7 6 7 7 7 6 5 4 4 6 6 5 5 4 5 5 3 2 3 3 1 2 1 2 1 2 1 1 3 5 4 5 5 6 1 1 4 7 7 7 7 7 8 6 7 8 7 8 9 10
9 9 9 8 7 7 7 7 8 8 8 7 8 8 8 8 7 7 7 7 6 6 7 7 6 6 7 6 6 7 7 6 5 6 5 6 6 6 4 4 3 2 1 3 2 2 0 3 4 4 4 3 3 4 3 4 7 6 8 14 8 6 6 6 8 7 7 9 8 7 7 7 11 18
8 8 7 7 7 6 6 7 6 6 8 8 8 7 9 9 8 7 7 7 6 5 6 6 6 6 5 6 6 4 4 6 7 6 7 6 5 4 4 4 5 3 1 3 3 5 4 6 5 5 4 6 6 5 5 6 8 7 8 10 10 6 7 6 7 8 8 8 9 9 10 8 7 6
7 7 6 6 6 6 6 6 6 6 6 6 6 6 6 7 8 7 7 7 7 7 6 6 6 6 6 6 6 7 7 5 4 5 4 5 6 6 5 5 3 3 4 6 4 4 6 7 6 7 2 1 3 3 3 4 7 6 6 7 6 11 13 12 8 7 7 10 9 7 8 9 9 8
6 6 6 6 6 5 6 6 6 6 6 6 7 7 7 7 7 8 8 7 7 6 6 6 6 6 6 6 6 6 6 7 6 5 6 6 6 4 5 4 5 3 5 7 5 6 4 1 2 1 1 2 2 1 5 4 8 8 7 6 7 8 12 14 15 14 9 7 5 7 8 8 6 7
6 6 6 5 6 6 6 7 6 7 7 6 7 7 7 7 7 7 7 7 6 6 6 6 6 6 6 6 6 6 6 5 6 6 6 5 6 6 5 6 6 5 6 6 4 2 4 3 2 1 2 0 3 2 5 6 6 6 7 8 9 8 7 10 13 16 16 16 11 7 5 7 9 9
5 6 6 6 7 6 6 6 6 6 7 7 7 7 7 8 7 7 7 7 7 6 6 6 6 6 6 6 5 5 6 6 5 6 6 6 6 5 5 4 4 4 4 5 5 5 3 3 3 1 0 3 2 2 6 4 6 6 6 7 7 7 10 8 8 10 11 9 10 10 12 13 12 15
6 6 8 7 6 6 6 6 7 6 7 7 7 6 6 6 6 6 5 6 6 6 6 6 6 6 6 6 6 6 6 5 5 5 4 4 4 5 4 4 4 3 5 4 4 5 2 2 3 0 2 4 2 3 5 4 6 6 6 6 9 8 6 7 9 10 10 11 12 14 15 16 15 16
Wind_Direction
218 222 221 220 223 219 203 204 208 209 204 201 192 190 198 201 228 220 225 222 227 203 199 198 206 194 192 192 186 176 183 178 170 178 185 192 176 231 256 267 277 285 288 292 297 300 304 303 302 302 303 305 307 307 309 310 310 310 309 307 306 306 305 305 304 307 308 308 308 309 310 309 308 306
212 220 220 220 226 216 206 209 207 203 202 192 193 198 206 196 210 224 234 254 175 192 202 199 179 185 192 179 173 174 183 174 169 160 170 176 180 218 246 267 279 287 293 296 298 299 298 298 301 304 307 309 310 312 312 312 312 311 309 308 308 308 307 309 310 311 310 309 313 311 311 308 308 307
212 217 221 216 220 206 213 212 206 205 194 197 194 201 194 197 207 218 210 253 229 156 183 213 176 165 188 175 162 147 135 155 164 166 167 158 174 207 248 264 277 287 291 295 297 296 299 304 307 310 312 313 313 314 315 314 312 311 310 311 311 311 311 312 312 311 312 312 312 312 312 310 308 309
214 216 222 220 220 213 211 211 205 202 202 191 189 192 191 201 211 199 199 229 242 342 214 171 157 138 148 147 147 151 142 143 146 132 136 137 143 186 235 272 280 287 290 290 292 299 305 309 310 312 315 317 317 318 317 315 314 315 315 314 315 317 316 315 314 314 313 313 313 313 312 311 312 313
212 213 218 219 218 200 205 209 199 196 191 180 190 189 189 199 186 182 195 211 165 289 355 152 152 136 134 127 145 128 125 122 129 130 125 128 143 164 214 248 278 281 279 283 294 299 302 307 314 319 321 321 322 322 320 319 320 320 320 320 319 319 319 318 317 316 315 313 312 311 311 311 314 313
215 213 218 223 215 196 208 201 200 194 184 185 185 190 191 197 188 181 167 183 163 173 172 101 92 89 119 108 131 147 143 140 130 122 107 101 146 196 195 235 266 268 280 290 291 295 305 316 321 324 326 328 330 328 324 323 323 322 321 322 324 324 324 322 320 318 316 314 313 311 310 311 312 311
211 215 218 223 206 192 203 204 202 182 187 182 190 196 189 190 182 181 178 152 165 157 155 141 140 135 121 107 140 126 112 113 120 122 138 158 173 175 191 224 244 276 280 283 294 307 317 324 330 335 337 334 330 326 323 324 325 325 328 330 330 328 325 323 320 317 315 314 313 313 313 315 313 313
209 213 215 220 200 191 201 201 190 188 181 181 188 184 189 183 180 182 178 176 138 152 140 168 146 145 117 86 104 108 110 118 114 129 131 123 149 208 210 219 249 263 274 285 306 318 327 339 345 342 336 330 325 325 327 328 329 332 333 332 330 326 323 321 321 320 319 318 317 317 316 315 315 317
213 213 214 212 193 187 198 190 191 185 188 186 179 185 181 181 174 173 175 165 147 147 154 127 69 120 81 98 108 125 121 96 88 80 106 152 189 251 236 226 243 257 277 297 315 332 350 353 346 338 331 327 327 329 328 327 330 333 334 331 328 326 325 324 323 321 319 318 318 318 317 318 318 318
215 215 215 206 190 189 194 196 191 183 186 177 181 178 176 174 167 171 170 159 158 157 159 150 130 146 136 120 107 94 109 126 117 110 128 126 188 193 263 221 209 215 220 278 316 1 352 346 338 332 326 323 324 325 327 329 334 336 333 329 326 325 323 322 321 320 319 319 319 319 320 320 320 319
218 217 214 203 193 196 199 190 186 181 178 178 183 177 169 167 165 167 166 160 153 150 140 118 138 132 74 123 125 98 91 92 125 139 123 339 178 184 196 252 226 181 278 299 19 357 348 334 325 317 316 320 323 326 327 333 334 333 327 324 323 322 322 322 322 320 320 319 320 322 322 322 322 319
218 214 210 204 199 200 198 190 183 173 174 169 169 171 163 166 162 160 155 150 147 148 153 152 156 154 128 90 69 99 118 113 110 167 146 155 169 201 192 205 293 324 55 352 349 347 331 295 298 297 303 306 314 320 324 327 332 327 322 322 322 323 323 323 322 321 321 321 321 320 320 321 319 319
215 213 208 204 202 201 199 192 181 181 170 163 165 171 168 164 159 151 148 148 146 147 145 124 100 111 119 147 148 150 157 174 167 150 150 154 184 163 179 255 194 193 196 235 231 278 245 283 279 276 273 279 289 299 315 330 324 319 324 326 325 325 325 324 324 323 322 322 322 321 321 321 321 321
213 211 206 206 200 197 190 183 182 180 178 178 169 165 170 164 158 154 149 152 154 150 147 149 147 152 170 171 174 153 130 129 108 123 157 143 164 87 321 309 252 168 137 142 249 262 267 246 270 267 264 271 302 315 343 316 326 327 326 327 328 328 328 328 327 326 324 324 323 321 321 322 322 322
209 207 203 196 192 189 183 183 183 182 181 181 176 171 171 170 161 153 151 152 154 152 150 152 158 164 158 163 155 154 144 142 152 150 146 141 130 138 102 296 311 151 138 201 200 269 263 230 247 259 266 291 330 354 336 333 328 326 328 331 334 334 332 331 330 329 329 328 327 324 324 325 325 327
204 198 191 189 181 185 185 178 180 180 179 174 168 169 172 172 157 153 154 152 158 154 141 143 163 155 175 159 155 152 144 148 138 139 141 146 153 184 208 214 214 229 142 194 218 267 266 188 232 266 298 38 19 352 340 330 327 332 338 341 340 337 335 334 334 334 332 331 329 329 329 330 329 328
199 192 186 184 188 189 181 176 176 169 171 169 162 152 140 124 110 88 107 137 147 136 136 154 164 177 154 155 172 157 143 138 138 149 156 173 177 196 209 221 218 274 199 205 245 235 262 131 15 4 354 33 2 346 330 324 335 348 347 345 342 340 339 338 337 336 335 334 333 332 332 331 329 328
197 188 184 182 184 177 176 176 168 161 155 143 129 121 116 101 88 94 96 94 106 126 145 155 169 158 148 154 136 140 134 141 158 160 177 180 189 205 215 195 201 315 37 47 254 243 201 63 48 316 329 11 338 326 320 331 353 354 350 346 345 344 343 340 340 340 338 336 334 333 332 331 329 329
197 188 187 183 178 172 173 175 165 158 148 137 133 123 117 109 111 116 114 113 122 116 115 137 131 122 110 110 124 133 134 147 159 163 176 185 184 166 62 7 179 93 49 33 55 230 205 65 37 318 327 319 301 297 310 353 0 353 352 350 348 346 344 345 344 340 338 336 335 334 333 333 333 335
192 187 182 180 176 172 173 173 166 156 143 137 136 130 117 110 102 89 98 106 101 104 107 113 122 117 111 115 125 141 149 154 145 120 90 73 84 104 132 225 295 93 37 55 97 257 293 73 17 284 295 288 286 304 299 21 0 354 353 354 350 347 346 345 343 341 340 338 337 337 337 337 338 340
188 185 182 176 169 168 173 174 165 158 152 139 137 133 131 128 121 114 112 111 112 110 106 110 118 124 129 135 147 163 169 157 139 126 123 141 131 138 180 264 29 274 86 4 60 12 300 1 24 301 255 278 277 298 80 26 359 358 357 353 350 346 347 345 344 342 341 340 341 341 341 341 343 347
185 185 179 170 168 170 168 167 159 157 154 155 154 149 141 135 122 120 122 113 112 117 120 124 129 140 152 153 138 123 128 124 132 148 170 180 116 130 154 202 220 274 177 35 50 31 261 341 329 319 282 322 262 163 109 46 5 354 354 350 347 344 346 345 345 343 342 343 342 342 343 343 346 350
174 176 180 176 168 169 169 171 166 162 160 151 151 148 137 137 142 151 141 133 132 136 134 131 124 98 89 88 88 96 93 90 84 103 130 136 129 156 180 171 156 3 277 108 320 69 291 32 319 32 352 1 262 135 203 25 18 340 337 337 341 342 347 346 345 343 342 343 342 342 343 343 346 347
183 179 179 179 175 177 174 170 163 163 163 154 155 152 151 149 152 147 138 137 134 134 129 119 108 109 102 98 92 78 81 77 86 91 98 122 132 144 172 177 165 172 224 5 87 117 267 98 312 29 109 324 312 274 237 2 346 335 342 334 334 344 346 344 341 338 337 339 340 340 340 340 343 343
175 170 173 171 177 173 169 162 166 169 168 161 153 152 155 163 147 140 135 144 141 129 124 118 116 116 107 96 91 91 90 86 82 86 83 87 118 137 148 152 154 213 239 308 64 102 234 82 356 358 348 48 265 322 296 327 286 347 353 333 331 338 339 337 335 331 335 335 336 337 336 339 341 341
167 173 171 174 175 171 169 169 170 169 161 150 146 153 138 133 143 144 138 140 137 132 128 125 120 121 119 113 101 94 92 96 92 86 84 75 74 95 154 153 159 178 243 322 58 126 102 360 145 43 300 32 295 304 310 314 251 132 348 330 337 333 336 332 334 335 334 328 331 333 335 337 336 337
175 171 171 169 173 174 174 174 171 165 157 152 151 149 145 147 144 140 143 142 136 136 134 131 134 134 131 129 126 121 112 103 95 89 84 79 87 72 58 69 116 136 119 56 28 100 101 151 328 120 265 301 299 300 265 281 308 341 333 334 330 327 329 333 333 338 331 328 326 331 333 331 332 334
171 172 172 174 177 176 173 169 166 163 155 150 152 150 149 147 144 139 142 143 142 138 136 137 143 146 142 129 136 142 137 129 112 94 83 78 74 91 85 73 77 86 92 84 69 72 100 118 51 51 157 170 243 271 295 287 286 322 327 314 309 260 333 332 338 333 331 326 323 329 326 326 328 330
173 170 174 175 177 172 167 166 161 155 151 151 151 148 147 143 138 147 147 147 145 146 152 153 144 145 151 143 139 133 126 119 99 93 63 59 59 61 84 88 78 63 65 77 83 92 108 115 128 22 61 147 184 261 250 283 314 318 331 329 323 344 335 341 341 334 330 323 322 323 321 323 321 326
171 174 175 174 169 166 166 166 159 155 152 148 148 148 145 140 146 149 147 150 152 153 151 152 153 147 131 120 129 130 125 111 118 117 95 81 34 61 124 104 60 38 50 39 84 83 78 76 93 96 359 265 216 248 256 295 298 311 316 310 294 308 284 11 330 333 330 325 321 317 315 314 311 317
165 171 173 172 166 159 161 151 143 137 137 139 136 129 133 141 144 152 163 160 148 145 144 138 128 126 119 116 116 122 117 109 83 97 121 108 110 83 74 115 105 6 339 8 17 50 42 32 15 52 315 288 283 241 250 247 284 299 301 299 319 310 314 328 327 325 327 322 316 311 308 310 305 307
162 164 167 162 156 149 140 139 140 117 103 111 124 130 126 123 119 115 98 81 100 110 117 108 109 111 129 132 128 109 103 117 100 91 111 124 130 113 103 94 183 318 318 346 351 358 24 8 344 320 272 233 253 286 336 247 253 271 287 287 284 292 301 315 317 318 324 320 313 310 308 309 305 302
161 165 167 163 154 146 140 133 124 113 111 107 116 124 126 127 135 139 145 139 137 138 132 140 145 146 135 128 119 115 111 129 128 54 87 83 132 59 71 152 170 137 206 311 338 330 340 329 332 296 277 270 248 246 251 289 285 237 232 272 309 301 306 306 309 310 320 316 309 307 308 310 296 303
170 175 163 159 155 150 147 147 138 138 138 139 134 133 137 137 142 136 126 128 137 141 139 141 141 149 142 138 138 134 141 133 106 214 158 170 137 104 113 142 213 243 148 255 295 306 323 332 346 328 327 295 240 214 201 215 253 277 261 290 293 301 298 310 304 306 309 306 309 307 309 310 312 309
174 170 160 158 155 154 150 148 147 146 148 150 145 144 142 142 139 130 132 141 138 137 131 140 144 146 151 152 150 152 158 155 157 65 56 112 89 127 141 144 206 223 217 293 299 306 6 334 3 355 348 349 353 321 206 181 166 232 287 294 288 294 300 306 303 304 302 298 296 296 301 301 305 311
170 167 159 157 159 157 157 156 152 155 152 155 151 144 145 151 148 147 152 155 142 139 138 145 148 151 148 145 155 155 153 149 155 160 150 122 119 100 109 158 174 219 205 213 244 282 222 306 29 46 29 347 25 339 326 189 175 170 200 274 298 297 294 299 299 298 298 294 290 296 299 305 304 311
166 162 160 157 158 161 158 157 157 156 154 153 156 160 157 156 160 143 135 139 138 144 153 147 152 151 142 143 149 155 155 153 169 176 164 139 120 133 147 201 184 185 223 255 219 271 310 322 93 121 66 5 18 267 257 308 291 299 132 206 287 294 301 303 299 297 293 298 300 298 299 299 299 303
161 157 160 161 166 166 159 158 152 151 151 150 145 138 127 124 123 126 128 139 144 141 148 144 142 133 141 147 148 156 158 166 157 165 164 151 144 169 175 194 225 212 216 264 270 261 199 196 222 198 139 222 305 291 296 307 333 312 168 97 314 298 300 299 300 303 305 303 293 295 295 289 295 298
160 162 166 164 166 161 159 160 157 157 153 149 151 152 145 138 135 135 149 149 137 139 131 128 134 144 153 161 160 157 161 159 172 178 169 180 177 173 186 182 209 255 144 266 288 276 285 230 222 208 168 176 207 221 234 280 271 270 295 302 294 281 287 293 296 299 302 307 302 297 274 271 286 296
161 156 157 158 162 161 153 151 155 152 154 160 157 151 146 148 148 146 144 143 137 143 141 140 138 136 145 155 150 137 153 180 181 178 178 180 184 180 175 181 189 187 184 244 248 263 245 243 229 220 229 230 234 250 236 252 270 285 282 293 289 290 295 293 300 307 305 305 305 305 305 308 299 295
147 156 154 151 152 153 151 150 144 143 147 139 133 131 130 138 143 155 154 149 148 143 134 135 148 158 162 158 159 162 174 187 175 178 181 176 171 169 185 173 205 178 195 254 239 245 241 232 230 265 285 244 313 355 330 312 292 292 303 293 295 306 306 313 306 299 297 306 302 296 303 312 313 317
146 141 133 134 145 140 137 141 135 135 133 141 142 142 139 142 147 141 141 143 138 134 130 142 155 154 154 159 162 167 171 178 180 190 184 174 184 188 189 179 194 205 192 238 239 232 250 274 330 6 355 342 340 198 255 245 280 298 299 301 298 302 311 312 315 312 303 291 286 301 307 299 303 299
137 131 135 123 119 130 135 139 143 143 143 142 143 140 136 133 134 135 138 143 142 140 148 146 151 156 159 160 168 169 165 176 182 187 186 183 180 184 199 205 205 203 205 238 251 256 278 302 324 347 350 143 236 183 245 267 269 286 296 307 309 313 305 311 316 317 317 316 307 292 289 312 322 317
123 123 117 129 126 130 130 138 135 136 140 144 141 140 143 144 147 154 155 153 152 161 152 152 156 163 166 163 159 165 180 183 178 182 191 192 188 190 194 207 211 220 223 235 270 277 285 297 288 209 250 262 217 222 259 282 286 277 284 292 301 316 318 322 323 324 327 324 319 323 324 321 312 309
123 121 118 119 129 126 127 130 132 134 135 133 138 140 141 139 145 146 145 143 144 142 150 159 162 166 155 152 158 182 201 190 184 197 178 180 185 196 201 197 209 214 224 222 222 279 278 254 298 356 223 253 224 220 261 263 273 297 296 309 306 312 309 325 336 339 334 321 313 326 334 332 332 330